This demonstration page uses our WeatherBlox Daily Observations layout. Learn more.

Hourly Observations for June 8, 2015

Temp ( °F °C ) Dew Point ( °F °C ) Humidity (%) Winds ( mph kmh ) Pressure ( in mb ) Visibility ( mi km ) Precip ( " mm )
12:15 am 00:15 Clear 64 17.7 59 14.9 84 84 Calm 29.91 1013 10 16.0934 0 0
12:35 am 00:35 Clear 64 17.6 59 14.8 84 84 Calm 29.94 1014 10 16.0934 0 0
12:55 am 00:55 Clear 64 17.6 58 14.4 82 82 WNW 3 6 29.94 1014 10 16.0934 0 0
1:15 am 01:15 Clear 64 18 58 14.5 80 80 W 6 9 29.94 1014 10 16.0934 0 0
1:35 am 01:35 Clear 64 17.9 58 14.5 81 81 WNW 5 7 29.94 1014 10 16.0934 0 0
1:55 am 01:55 Clear 63 17.2 58 14.3 83 83 WNW 5 7 29.94 1014 10 16.0934 0 0
2:15 am 02:15 Clear 62 16.6 57 14.1 85 85 WNW 3 6 29.94 1014 10 16.0934 0 0
2:35 am 02:35 Clear 63 17 57 14.1 83 83 Calm 29.94 1014 10 16.0934 0 0
2:55 am 02:55 Clear 62 16.5 57 14 85 85 W 3 6 29.94 1014 10 16.0934 0 0
3:15 am 03:15 Clear 62 16.8 57 14 84 84 W 5 7 29.94 1014 10 16.0934 0 0
3:35 am 03:35 Clear 62 16.5 56 13.6 83 83 WNW 5 7 29.94 1014 10 16.0934 0 0
3:55 am 03:55 Clear 62 16.7 57 13.8 83 83 W 7 11 29.94 1014 10 16.0934 0 0
4:15 am 04:15 Clear 63 17.1 57 13.7 81 81 W 7 11 29.94 1014 10 16.0934 0 0
4:35 am 04:35 Clear 61 16.2 56 13.2 83 83 W 7 11 29.94 1014 10 16.0934 0 0
4:55 am 04:55 Clear 62 16.5 56 13.2 81 81 WNW 6 9 29.94 1014 10 16.0934 0 0
5:15 am 05:15 Clear 60 15.6 55 13 85 85 W 7 11 29.94 1014 10 16.0934 0 0
5:35 am 05:35 Clear 60 15.4 55 12.8 85 85 W 7 11 29.97 1015 10 16.0934 0 0
5:55 am 05:55 Clear 60 15.5 55 12.6 83 83 W 6 9 29.94 1014 10 16.0934 0 0
6:15 am 06:15 Sunny 60 15.6 55 12.6 82 82 W 6 9 29.94 1014 10 16.0934 0 0
6:35 am 06:35 Sunny 61 16.2 55 12.7 80 80 W 6 9 29.94 1014 10 16.0934 0 0
6:55 am 06:55 Sunny 62 16.5 55 13 80 80 W 7 11 29.94 1014 10 16.0934 0 0
7:15 am 07:15 Sunny 63 17.1 56 13.2 78 78 W 6 9 29.94 1014 10 16.0934 0 0
7:35 am 07:35 Sunny 64 17.6 56 13.5 77 77 WNW 6 9 29.97 1015 10 16.0934 0 0
7:55 am 07:55 Sunny 65 18.1 57 14.1 78 78 WNW 5 7 29.97 1015 10 16.0934 0 0
8:15 am 08:15 Sunny 67 19.4 59 15 76 76 WNW 6 9 29.97 1015 10 16.0934 0 0
8:35 am 08:35 Sunny 70 21 58 14.6 67 67 NW 9 15 29.94 1014 10 16.0934 0 0
8:55 am 08:55 Sunny 72 22 59 14.8 64 64 NW 10 17 29.94 1014 10 16.0934 0 0
9:15 am 09:15 Sunny 74 23.3 58 14.4 57 57 NW 12 19 29.94 1014 10 16.0934 0 0
9:35 am 09:35 Sunny 75 24.1 58 14.2 54 54 NW 9 15 29.91 1013 10 16.0934 0 0
9:55 am 09:55 Sunny 77 25 56 13.1 48 48 NNW 12 19 29.91 1013 10 16.0934 0 0
10:15 am 10:15 Sunny 78 25.6 55 12.5 44 44 NW 12 19 29.91 1013 10 16.0934 0 0
10:35 am 10:35 Sunny 79 26.1 53 11.6 40 40 NW 12 19 29.91 1013 10 16.0934 0 0
10:55 am 10:55 Sunny 80 26.7 51 10.4 36 36 N 12 19 29.91 1013 10 16.0934 0 0
11:15 am 11:15 Sunny 80 26.9 49 9.5 34 34 N 9 15 29.91 1013 10 16.0934 0 0
11:35 am 11:35 Sunny 81 27.3 47 8.4 30 30 NNW 10 17 29.91 1013 10 16.0934 0 0
11:55 am 11:55 Sunny 82 27.6 47 8.6 30 30 NNW 9 15 29.88 1012 10 16.0934 0 0
12:15 pm 12:15 Sunny 82 27.9 49 9.3 31 31 NNW 10 17 29.88 1012 10 16.0934 0 0
12:35 pm 12:35 Sunny 82 27.8 50 10 33 33 NW 5 7 29.88 1012 10 16.0934 0 0
12:55 pm 12:55 Sunny 83 28.2 49 9.2 30 30 NW 8 13 29.88 1012 10 16.0934 0 0
1:15 pm 13:15 Sunny 83 28.3 48 9 30 30 NW 6 9 29.88 1012 10 16.0934 0 0
1:35 pm 13:35 Sunny 83 28.3 46 8 28 28 NNW 5 7 29.85 1011 10 16.0934 0 0
1:55 pm 13:55 Sunny 83 28.6 49 9.2 30 30 N 7 11 29.85 1011 10 16.0934 0 0
2:15 pm 14:15 Partly Cloudy 84 28.9 48 8.9 29 29 NW 8 13 29.85 1011 10 16.0934 0 0
2:55 pm 14:55 Partly Cloudy 84 29 48 9 29 29 WNW 10 17 29.85 1011 10 16.0934 0 0
3:15 pm 15:15 Partly Cloudy 83 28.4 49 9.4 30 30 NNW 6 9 29.85 1011 10 16.0934 0 0
3:35 pm 15:35 Partly Cloudy 85 29.4 50 9.8 29 29 W 5 7 29.85 1011 10 16.0934 0 0
3:55 pm 15:55 Mostly Cloudy 83 28.6 50 9.8 31 31 NW 3 6 29.85 1011 10 16.0934 0 0
4:15 pm 16:15 Partly Cloudy 85 29.4 50 10 30 30 W 5 7 29.83 1010 10 16.0934 0 0
4:35 pm 16:35 Partly Cloudy 86 29.8 50 9.9 29 29 WNW 8 13 29.83 1010 10 16.0934 0 0
4:55 pm 16:55 Partly Cloudy 86 29.8 49 9.6 28 28 WNW 6 9 29.83 1010 10 16.0934 0 0
5:15 pm 17:15 Sunny 86 29.8 48 9.1 27 27 WNW 6 9 29.83 1010 10 16.0934 0 0
5:35 pm 17:35 Partly Cloudy 86 30 49 9.3 28 28 NNE 7 11 29.83 1010 10 16.0934 0 0
5:55 pm 17:55 Mostly Cloudy 85 29.2 50 10.1 30 30 Calm 29.83 1010 10 16.0934 0 0
6:15 pm 18:15 Partly Cloudy 85 29.3 49 9.7 29 29 NNW 8 13 29.83 1010 10 16.0934 0 0
6:35 pm 18:35 Partly Cloudy 85 29.6 49 9.6 29 29 N 5 7 29.83 1010 10 16.0934 0 0
6:55 pm 18:55 Mostly Cloudy 85 29.5 49 9.3 28 28 N 3 6 29.83 1010 10 16.0934 0 0
7:15 pm 19:15 Partly Cloudy 84 28.9 50 9.8 30 30 N 3 6 29.83 1010 10 16.0934 0 0
7:35 pm 19:35 Sunny 83 28.1 51 10.5 33 33 Calm 29.83 1010 10 16.0934 0 0
7:55 pm 19:55 Partly Cloudy 82 27.5 53 11.4 37 37 Calm 29.83 1010 10 16.0934 0 0
8:15 pm 20:15 Partly Cloudy 81 27.1 54 12 39 39 Calm 29.83 1010 10 16.0934 0 0
8:35 pm 20:35 Sunny 79 26.1 54 12.4 43 43 E 5 7 29.85 1011 10 16.0934 0 0
8:55 pm 20:55 Sunny 77 25.2 53 11.5 42 42 E 6 9 29.85 1011 10 16.0934 0 0
9:15 pm 21:15 Clear 77 24.8 53 11.4 43 43 E 5 7 29.85 1011 10 16.0934 0 0
9:35 pm 21:35 Clear 73 23 56 13.6 56 56 ESE 5 7 29.85 1011 10 16.0934 0 0
9:55 pm 21:55 Clear 73 23 56 13.1 54 54 ESE 5 7 29.85 1011 10 16.0934 0 0
10:15 pm 22:15 Clear 73 22.5 55 12.7 54 54 Calm 29.85 1011 10 16.0934 0 0
10:35 pm 22:35 Clear 72 22.3 55 12.8 55 55 Calm 29.88 1012 10 16.0934 0 0
10:55 pm 22:55 Clear 72 22.4 55 12.9 55 55 SE 3 6 29.88 1012 10 16.0934 0 0
11:15 pm 23:15 Clear 72 22 53 11.9 53 53 SSE 5 7 29.88 1012 10 16.0934 0 0
11:35 pm 23:35 Clear 70 21.2 53 11.9 56 56 S 3 6 29.88 1012 10 16.0934 0 0
11:55 pm 23:55 Clear 70 21 54 12.2 57 57 SSE 3 6 29.88 1012 10 16.0934 0 0

Powered by AerisWeather